Weather History for VTSP - December, 2012

Change the Weather History Date:

Sunday, December 23, 2012

  Actual Average Record
Temperature  
Mean Temperature 78 °F -  
Max Temperature 84 °F 89 °F - ()
Min Temperature 72 °F 74 °F - ()
Cooling Degree Days 13    
Growing Degree Days 28 (Base 50)    
Moisture  
Dew Point 72 °F    
Average Humidity 82    
Maximum Humidity 96    
Minimum Humidity 69    
Precipitation  
Precipitation 0.79 in 0.06 in - ()
Sea Level Pressure  
Sea Level Pressure 29.81 in    
Wind  
Wind Speed 5 mph ()    
Max Wind Speed 29 mph    
Max Gust Speed -    
Visibility 5.3 miles    
Events Rain    
T = Trace of Precipitation, MM = Missing Value Source: Averaged Metar Reports

Daily Weather History Graph

Daily Weather History Graph

Search for Another Location

Airport or City:

Trip Planner

Search our weather history database for the weather conditions in past years. The results will help you decide how hot, cold, wet, or windy it might be!

Date:

Astronomy

Dec. 23, 2012 Rise Set
Actual Time 6:36 AM ICT 6:15 PM ICT
Civil Twilight 6:13 AM ICT 6:38 PM ICT
Nautical Twilight 5:47 AM ICT 7:04 PM ICT
Astronomical Twilight 5:21 AM ICT 7:30 PM ICT
Moon 2:23 PM ICT (12/23) 2:17 AM ICT (12/23)
Length of Visible Light 12h 24m
Length of Day
11h 39m
Waxing Gibbous, 77% of the Moon is Illuminated
Dec 23
Waxing Gibbous
Dec 28
Full
Jan 5
Last Quarter
Jan 12
New
Jan 19
First Quarter

Hourly Weather History & Observations

Time (ICT) Temp. Heat Index Dew Point Humidity Pressure Visibility Wind Dir Wind Speed Gust Speed Precip Events Conditions
1:00 AM 77 °F - 74 °F 89% 29.78 in 6 mi Calm Calm - -   Scattered Clouds
1:00 AM 77.0 °F - 73.4 °F 89% 29.83 in 6.2 mi Calm Calm - N/A   Mostly Cloudy
1:30 AM 77.0 °F - 73.4 °F 89% 29.83 in 6.2 mi Calm Calm - N/A   Scattered Clouds
2:00 AM 77.0 °F - 73.4 °F 89% 29.80 in 6.2 mi Calm Calm - N/A   Scattered Clouds
2:30 AM 75.2 °F - 73.4 °F 94% 29.80 in 6.2 mi Calm Calm - N/A   Scattered Clouds
3:00 AM 75.2 °F - 73.4 °F 94% 29.80 in 6.2 mi Calm Calm - N/A   Scattered Clouds
3:30 AM 77.0 °F - 73.4 °F 89% 29.80 in 6.2 mi Calm Calm - N/A   Scattered Clouds
4:00 AM 75.2 °F - 73.4 °F 94% 29.80 in 1.9 mi East 28.8 mph - N/A Rain Rain
4:30 AM 73.4 °F - 71.6 °F 94% 29.83 in 2.5 mi ESE 8.1 mph - N/A Rain Rain
5:00 AM 73.4 °F - 69.8 °F 88% 29.80 in 4.3 mi Calm Calm - N/A Rain Rain
5:30 AM 73.4 °F - 71.6 °F 94% 29.80 in 4.3 mi East 3.5 mph - N/A Rain Rain
6:00 AM 73.4 °F - 71.6 °F 94% 29.83 in 5.6 mi Calm Calm - N/A   Mostly Cloudy
6:30 AM 73.4 °F - 71.6 °F 94% 29.83 in 5.0 mi Calm Calm - N/A Rain Light Rain
7:00 AM 74 °F - 73 °F 96% 29.80 in 6 mi Calm Calm - - Rain Light Rain
7:00 AM 73.4 °F - 71.6 °F 94% 29.83 in 5.6 mi Calm Calm - N/A   Mostly Cloudy
7:30 AM 73.4 °F - 71.6 °F 94% 29.86 in 5.0 mi East 5.8 mph - N/A   Mostly Cloudy
8:00 AM 75.2 °F - 71.6 °F 89% 29.86 in 3.7 mi NNE 5.8 mph - N/A Rain Rain
8:30 AM 75.2 °F - 73.4 °F 94% 29.86 in 4.3 mi ENE 6.9 mph - N/A   Mostly Cloudy
9:00 AM 77.0 °F - 73.4 °F 89% 29.86 in 4.3 mi ENE 8.1 mph - N/A   Mostly Cloudy
9:30 AM 78.8 °F - 73.4 °F 83% 29.86 in 5.0 mi East 10.4 mph - N/A   Mostly Cloudy
10:00 AM 80.6 °F 85.4 °F 73.4 °F 79% 29.86 in 6.2 mi East 16.1 mph - N/A   Mostly Cloudy
10:30 AM 80.6 °F 84.6 °F 71.6 °F 74% 29.86 in 6.2 mi East 17.3 mph - N/A   Mostly Cloudy
11:00 AM 80.6 °F 85.4 °F 73.4 °F 79% 29.86 in 6.2 mi East 9.2 mph - N/A   Mostly Cloudy
11:30 AM 80.6 °F 85.4 °F 73.4 °F 79% 29.83 in 6.2 mi East 11.5 mph - N/A   Mostly Cloudy
12:00 PM 80.6 °F 85.4 °F 73.4 °F 79% 29.83 in 6.2 mi East 10.4 mph - N/A   Mostly Cloudy
12:30 PM 80.6 °F 84.6 °F 71.6 °F 74% 29.83 in 5.6 mi East 15.0 mph - N/A   Mostly Cloudy
1:00 PM 82 °F - 75 °F 73% 29.81 in 6 mi East 15.0 mph - -   Scattered Clouds
1:00 PM 80.6 °F 85.4 °F 73.4 °F 79% 29.80 in 5.6 mi East 16.1 mph - N/A   Mostly Cloudy
1:30 PM 80.6 °F 85.4 °F 73.4 °F 79% 29.80 in 5.6 mi East 11.5 mph - N/A   Mostly Cloudy
2:00 PM 80.6 °F 85.4 °F 73.4 °F 79% 29.77 in 5.6 mi East 8.1 mph - N/A   Mostly Cloudy
2:30 PM 80.6 °F 85.4 °F 73.4 °F 79% 29.74 in 5.6 mi ENE 8.1 mph - N/A   Mostly Cloudy
3:00 PM 82.4 °F 88.2 °F 73.4 °F 74% 29.74 in 5.6 mi East 11.5 mph - N/A   Mostly Cloudy
3:30 PM 82.4 °F 88.2 °F 73.4 °F 74% 29.74 in 5.6 mi East 10.4 mph - N/A   Mostly Cloudy
4:00 PM 82.4 °F 88.2 °F 73.4 °F 74% 29.74 in 5.6 mi ENE 6.9 mph - N/A   Mostly Cloudy
4:30 PM 82.4 °F 88.2 °F 73.4 °F 74% 29.74 in 5.6 mi ENE 6.9 mph - N/A   Mostly Cloudy
5:00 PM 80.6 °F 85.4 °F 73.4 °F 79% 29.74 in 5.6 mi ENE 4.6 mph - N/A   Mostly Cloudy
5:30 PM 80.6 °F 85.4 °F 73.4 °F 79% 29.74 in 5.0 mi NE 5.8 mph - N/A   Mostly Cloudy
6:00 PM 80.6 °F 84.6 °F 71.6 °F 74% 29.74 in 5.0 mi NE 4.6 mph - N/A   Mostly Cloudy
6:30 PM 80.6 °F 84.6 °F 71.6 °F 74% 29.77 in 5.0 mi NE 6.9 mph - N/A   Mostly Cloudy
7:00 PM 82 °F - 74 °F 69% 29.75 in 6 mi NE 4.6 mph - -   Scattered Clouds
7:00 PM 80.6 °F 83.9 °F 69.8 °F 70% 29.77 in 5.0 mi ENE 5.8 mph - N/A   Mostly Cloudy
7:30 PM 80.6 °F 84.6 °F 71.6 °F 74% 29.80 in 5.0 mi ENE 6.9 mph - N/A   Mostly Cloudy
8:00 PM 80.6 °F 84.6 °F 71.6 °F 74% 29.80 in 5.0 mi ENE 8.1 mph - N/A   Mostly Cloudy
8:30 PM 80.6 °F 84.6 °F 71.6 °F 74% 29.83 in 5.0 mi ENE 6.9 mph - N/A   Mostly Cloudy
9:00 PM 80.6 °F 84.6 °F 71.6 °F 74% 29.83 in 5.0 mi ENE 8.1 mph - N/A   Mostly Cloudy
9:30 PM 80.6 °F 83.9 °F 69.8 °F 70% 29.83 in 5.0 mi ENE 5.8 mph - N/A   Mostly Cloudy
10:00 PM 78.8 °F - 69.8 °F 74% 29.86 in 5.0 mi East 5.8 mph - N/A   Mostly Cloudy
10:30 PM 78.8 °F - 69.8 °F 74% 29.86 in 5.0 mi ENE 6.9 mph - N/A   Mostly Cloudy
11:00 PM 78.8 °F - 69.8 °F 74% 29.86 in 5.0 mi ENE 5.8 mph - N/A   Mostly Cloudy
11:30 PM 78.8 °F - 71.6 °F 78% 29.83 in 5.0 mi ENE 4.6 mph - N/A   Mostly Cloudy